[[{"header":{"parameterUnit":"m.s-1","parameterCategory":1,"la1":30.2992,"la2":30.254,"lo1":-89.0895,"lo2":-89.0443,"dy":0.0025,"dx":0.0025,"nx":19,"ny":19,"refTime":"2026-05-03T09:00:00:Z","depth":0,"parameterNumber":2,"parameterNumberName":"U-component_of_WINDS"},"data":[0,0,0,-1.426,-1.426,-1.4289,-1.4289,-1.4338,-1.4339,0,0,0,0,0,0,0,0,0,0,0,-1.4258,-1.4259,-1.426,-1.426,-1.4289,-1.4289,-1.4338,-1.4339,0,0,0,0,0,0,0,0,0,0,0,-1.4258,-1.4259,-1.4259,-1.4261,-1.4289,-1.4289,-1.4338,-1.4312,0,0,0,0,0,0,0,0,0,0,-1.4283,-1.4288,-1.4258,-1.4259,-1.4261,-1.4289,-1.4289,-1.4311,-1.4314,-1.4331,0,-1.4346,0,-1.4343,-1.4343,-1.4343,0,0,0,-1.4256,-1.4285,-1.4286,-1.4259,-1.4261,-1.4289,-1.4275,-1.4312,-1.4316,-1.4335,-1.4347,-1.4349,-1.4344,-1.4343,-1.4343,-1.4455,-1.4456,0,0,-1.4254,-1.4267,-1.4284,-1.4289,-1.4284,-1.4274,-1.4275,-1.4314,-1.4329,-1.4347,-1.4349,-1.4345,-1.4343,-1.4344,-1.4454,-1.4455,0,0,0,-1.4253,-1.4267,-1.4266,-1.4287,-1.4291,-1.4275,-1.4277,-1.4327,-1.4326,-1.435,-1.4345,-1.4344,-1.4345,-1.4454,-1.4455,-1.4506,0,0,0,-1.4252,-1.4266,-1.4266,-1.4274,-1.4291,-1.4309,-1.4289,-1.4323,-1.4327,-1.4345,-1.4344,-1.4345,-1.4453,-1.4454,-1.4503,-1.453,0,0,0,-1.4254,-1.4266,-1.4272,-1.4275,-1.4287,-1.4308,-1.4309,-1.4324,-1.4325,-1.4343,-1.4345,-1.4452,-1.4454,-1.45,-1.4525,-1.4565,0,0,0,-1.4261,-1.4317,-1.4273,-1.4334,-1.4287,-1.4339,-1.4309,-1.4346,-1.4368,-1.4344,-1.4453,-1.4455,-1.4499,-1.4522,-1.4562,-1.4603,-1.4621,0,0,-1.434,-1.4327,-1.4362,-1.4323,-1.4386,-1.4333,-1.4404,-1.4411,-1.4401,-1.4438,-1.444,-1.4504,-1.4524,-1.4564,-1.4709,-1.4723,0,0,0,-1.4392,-1.4417,-1.4431,-1.4452,-1.4457,-1.4466,-1.446,-1.4463,-1.4494,-1.4422,-1.4527,-1.4539,-1.4562,-1.4581,-1.4593,-1.4613,-1.4463,-1.4463,-1.4463,-1.4525,-1.4507,-1.4565,-1.4551,-1.4572,-1.4565,-1.4581,-1.4583,-1.456,-1.4585,-1.4598,-1.4687,-1.471,-1.4719,-1.474,-1.4615,-1.4615,-1.4615,-1.4615,-1.4641,-1.4676,-1.4643,-1.4687,-1.4669,-1.4706,-1.4702,-1.4684,-1.4717,-1.4676,-1.4696,-1.4656,-1.4735,-1.4753,-1.4619,-1.4618,-1.4618,-1.4618,-1.4617,-1.473,-1.4744,-1.4744,-1.4773,-1.4797,-1.478,-1.4814,-1.4795,-1.4778,-1.4796,-1.4809,-1.4808,-1.4808,-1.4803,-1.4803,-1.4804,-1.4804,-1.4804,-1.4804,-1.4822,-1.4821,-1.4852,-1.4862,-1.4873,-1.4886,-1.4879,-1.489,-1.4897,-1.4881,-1.4881,-1.4858,-1.4744,-1.4718,-1.4809,-1.4808,-1.4808,-1.4807,-1.4807,-1.4953,-1.492,-1.4967,-1.4978,-1.4989,-1.5016,-1.499,-1.5014,-1.5019,-1.5037,-1.5008,-1.4926,-1.4913,-1.4903,-1.4882,-1.5009,-1.5009,-1.5009,-1.5009,-1.5031,-1.502,-1.5065,-1.5084,-1.51,-1.5082,-1.5137,-1.5132,-1.5122,-1.5125,-1.5103,-1.5072,-1.5062,-1.5055,-1.5042,-1.5022,-1.5182,-1.5182,-1.5183,-1.5112,-1.5102,-1.5153,-1.5141,-1.5149,-1.5156,-1.5208,-1.5232,-1.5214,-1.5189,-1.5128,-1.5121,-1.507,-1.5053,-1.5032,-1.5012,-1.4975,0,0]},{"header":{"parameterUnit":"m.s-1","parameterCategory":1,"la1":30.2992,"la2":30.254,"lo1":-89.0895,"lo2":-89.0443,"dy":0.0025,"dx":0.0025,"nx":19,"ny":19,"refTime":"2026-05-03T09:00:00:Z","depth":0,"parameterNumber":3,"parameterNumberName":"V-component_of_WINDS"},"data":[0,0,0,-3.7669,-3.7672,-3.7782,-3.7782,-3.793,-3.7931,0,0,0,0,0,0,0,0,0,0,0,-3.7642,-3.7644,-3.7669,-3.7672,-3.7782,-3.7782,-3.793,-3.7931,0,0,0,0,0,0,0,0,0,0,0,-3.7642,-3.7643,-3.7645,-3.7672,-3.7782,-3.7782,-3.7929,-3.7843,0,0,0,0,0,0,0,0,0,0,-3.7735,-3.7717,-3.7643,-3.7645,-3.7673,-3.7782,-3.7782,-3.7839,-3.7849,-3.7884,0,-3.7917,0,-3.7927,-3.7942,-3.7942,0,0,0,-3.7667,-3.7709,-3.7733,-3.7645,-3.7674,-3.7781,-3.7731,-3.7844,-3.7855,-3.7897,-3.792,-3.7925,-3.7929,-3.7943,-3.7944,-3.8166,-3.8167,0,0,-3.7661,-3.7665,-3.7726,-3.7741,-3.7726,-3.7727,-3.7734,-3.7851,-3.7876,-3.792,-3.7928,-3.7932,-3.7944,-3.7945,-3.8164,-3.8166,0,0,0,-3.7647,-3.7661,-3.7682,-3.7735,-3.7754,-3.7731,-3.7739,-3.787,-3.7877,-3.793,-3.7934,-3.7945,-3.7947,-3.8163,-3.8165,-3.8234,0,0,0,-3.7643,-3.7652,-3.768,-3.7683,-3.7752,-3.7814,-3.7756,-3.7869,-3.7882,-3.7933,-3.7945,-3.7948,-3.8162,-3.8164,-3.8229,-3.8266,0,0,0,-3.7633,-3.7651,-3.7669,-3.7683,-3.7731,-3.7812,-3.7825,-3.7872,-3.7885,-3.7942,-3.7949,-3.8161,-3.8164,-3.8224,-3.8258,-3.8327,0,0,0,-3.7623,-3.7726,-3.767,-3.7787,-3.773,-3.7854,-3.7825,-3.7916,-3.7973,-3.7946,-3.8162,-3.8165,-3.8223,-3.8254,-3.8323,-3.8387,-3.8414,0,0,-3.7756,-3.7743,-3.7811,-3.7764,-3.7899,-3.7836,-3.7981,-3.8028,-3.8029,-3.812,-3.8125,-3.823,-3.8258,-3.8326,-3.856,-3.8581,0,0,0,-3.7854,-3.7904,-3.7938,-3.7995,-3.8035,-3.8072,-3.8098,-3.8115,-3.8193,-3.8077,-3.8272,-3.8289,-3.8328,-3.8359,-3.8378,-3.8413,-3.8179,-3.8178,-3.8178,-3.8047,-3.8045,-3.8158,-3.8169,-3.8224,-3.825,-3.8294,-3.8322,-3.8301,-3.8347,-3.8375,-3.8517,-3.8554,-3.8567,-3.8604,-3.8407,-3.8407,-3.8407,-3.8408,-3.8243,-3.8313,-3.8285,-3.8386,-3.8382,-3.8465,-3.8494,-3.8477,-3.8554,-3.8496,-3.8531,-3.8469,-3.8591,-3.8623,-3.8413,-3.8412,-3.8411,-3.8411,-3.841,-3.8371,-3.8404,-3.8425,-3.8508,-3.8571,-3.8577,-3.8653,-3.8646,-3.8639,-3.8673,-3.8703,-3.8702,-3.8702,-3.8687,-3.8688,-3.8689,-3.8689,-3.8689,-3.869,-3.8496,-3.8518,-3.8584,-3.8637,-3.8673,-3.8719,-3.8747,-3.8781,-3.8818,-3.8806,-3.8806,-3.8782,-3.8603,-3.8559,-3.8697,-3.8696,-3.8695,-3.8694,-3.8694,-3.8699,-3.8653,-3.8755,-3.8792,-3.8854,-3.8918,-3.8907,-3.8979,-3.9006,-3.9044,-3.9012,-3.888,-3.8866,-3.8851,-3.8816,-3.9012,-3.9012,-3.9012,-3.9012,-3.8809,-3.8801,-3.8906,-3.8965,-3.9021,-3.9023,-3.9139,-3.9162,-3.9177,-3.9194,-3.9163,-3.9114,-3.91,-3.9094,-3.9074,-3.9041,-3.929,-3.929,-3.929,-3.8935,-3.8933,-3.9034,-3.9051,-3.9098,-3.914,-3.9249,-3.9317,-3.9324,-3.9301,-3.9207,-3.9195,-3.9116,-3.909,-3.9067,-3.9036,-3.8974,0,0]}]]